User: anonymous   Login
Location: Unspecified
(0.0000°N, 0.0000°E)
Time: 15:07:12
(UTC+00:00)
Language:

COSMOS 2438 - Orbit

View from above orbital plane
View from above orbital plane
View from above satellite
View from above satellite

Ground track
Ground track

The orbit data is extracted from the following two-line orbital elements,

1 32955U 08025C   24106.11595826  .00000033  00000-0  16439-3 0  9991
2 32955  82.4972 126.3951 0020268 233.7483 126.1725 12.43341255721445
Epoch (UTC): 15 April 2024 02:46:58
Eccentricity: 0.0020268
inclination: 82.4972°
perigee height: 1476 km
apogee height: 1508 km
right ascension of ascending node: 126.3951°
argument of perigee: 233.7483°
revolutions per day: 12.43341255
mean anomaly at epoch: 126.1725°
orbit number at epoch: 72144

The dashed part of the orbit path shows where the satellite is in the earth's shadow,  

DLR